Flag for U.S.A. Weather past 2 weeks in Idaho Falls, Idaho, U.S.A.

44 °F


Feels Like: 44 °F
Forecast: 46 / 76 °F
Wind: No wind

Location: Fanning Field

Current Time: Oct 9, 2015 at 3:44:08 AM

Latest Report: Oct 9, 2015 at 2:53 AM

Visibility: 10 mi

Pressure: 30.28 "Hg (25.43 "Hg at 1429m altitude)

Humidity: 85%

Dew point: 40 °F

Location of Idaho FallsLocation

Historic Weather in Idaho Falls — Graph


Idaho Falls temperature yesterday

Maximum temperature yesterday: 70 °F (at 3:53 PM)
Minimum temperature yesterday: 50 °F (at 6:53 AM)
Average temperature yesterday: 59 °F

Past Weeks' High & Low Weather Summary

High89 °F (Sep 25, 3:53 PM)96% (Oct 3, 1:53 AM)30.29 "Hg (Oct 3, 1:53 AM)
Low39 °F (Sep 24, 6:53 AM)15% (Sep 25, 3:53 PM)29.76 "Hg (Oct 1, 11:53 PM)
Average59 °F58%30.00 "Hg
* Reported Sep 24 1:53 AM — Oct 9 1:53 AM, Idaho Falls, Weather by CustomWeather, © 2015

Note: Actual official high and low records may vary slightly from our data, if they occured in-between our weather recording intervals... More about our weather records


Idaho Falls weather history for previous 24 hours

Time TempWeatherWind HumidityBarometerVisibility
1:53 AM
Fri, Oct 9
46 °FClear.3 mph86%30.27 "Hg10 mi
12:53 AM47 °FClear.3 mph83%30.27 "Hg10 mi
11:53 PM
Thu, Oct 8
50 °FClear.No wind77%30.27 "Hg10 mi
10:53 PM51 °FClear.No wind77%30.27 "Hg10 mi
9:53 PM58 °FClear.3 mph58%30.25 "Hg10 mi
8:53 PM59 °FSunny.5 mph58%30.26 "Hg9 mi
7:53 PM62 °FSunny.6 mph48%30.26 "Hg10 mi
6:53 PM65 °FScattered clouds.3 mph42%30.24 "Hg10 mi
5:53 PM68 °FPassing clouds.7 mph38%30.22 "Hg10 mi
4:53 PM70 °FPassing clouds.5 mph34%30.21 "Hg10 mi
3:53 PM70 °FPartly sunny.No wind34%30.22 "Hg10 mi
2:53 PM69 °FScattered clouds.6 mph36%30.23 "Hg10 mi
1:53 PM68 °FScattered clouds.No wind40%30.26 "Hg10 mi
12:53 PM65 °FScattered clouds.6 mph49%30.27 "Hg10 mi
11:53 AM64 °FPassing clouds.7 mph54%30.28 "Hg10 mi
10:53 AM61 °FPassing clouds.7 mph60%30.29 "Hg10 mi
9:53 AM58 °FScattered clouds.9 mph65%30.27 "Hg10 mi
8:53 AM55 °FPartly cloudy.8 mph69%30.26 "Hg10 mi
7:53 AM51 °FPassing clouds.No wind74%30.26 "Hg10 mi
6:53 AM50 °FPassing clouds.8 mph77%30.24 "Hg10 mi
5:53 AM53 °FClear.8 mph72%30.22 "Hg10 mi
4:53 AM55 °FPassing clouds.5 mph67%30.20 "Hg10 mi
3:53 AM54 °FPassing clouds.5 mph69%30.20 "Hg10 mi
Weather by CustomWeather, © 2015

See weather overviewHow to use our weather pages